Theta_e
355 356 358 355 358 368 361 361 362 358 359 358 357 356 355 355 355 353 352 358 358 360 359 359 360 360 360 360 360 358 356 356 354 355 355 355 354 353 353 354 352 351 349
354 354 352 352 354 362 369 368 363 357 355 356 357 358 358 356 356 356 354 355 360 360 360 359 362 361 359 360 359 359 358 356 358 357 356 357 356 356 355 354 354 354 353
355 359 363 358 354 358 364 365 362 361 358 356 355 357 356 357 355 357 357 355 357 358 360 361 361 360 359 359 359 360 360 358 358 357 356 356 357 355 356 354 354 354 355
361 360 355 357 358 367 372 367 358 364 361 356 358 356 354 354 355 356 356 356 354 354 357 360 360 359 359 359 358 359 356 356 355 356 356 356 356 356 356 356 355 354 354
360 364 362 359 362 355 357 355 353 357 356 354 351 353 353 353 353 351 353 356 357 356 356 360 359 358 359 358 358 358 358 355 353 353 352 354 354 353 355 355 356 355 354
361 360 362 356 357 361 364 361 357 356 352 350 349 348 350 352 352 349 349 352 355 355 355 357 359 357 359 360 358 358 359 358 354 353 352 352 352 353 353 353 352 352 353
356 361 363 358 358 356 355 357 354 353 354 353 351 346 347 352 352 349 349 347 348 349 352 355 368 357 356 357 357 358 359 358 358 354 353 352 351 351 351 353 352 351 351
358 358 358 356 357 357 356 356 356 354 352 354 345 343 338 343 346 349 349 349 350 349 351 358 362 361 359 356 359 356 357 357 356 356 355 354 352 351 351 349 349 349 350
357 358 356 357 357 355 348 355 354 352 344 347 350 344 339 332 346 348 350 349 352 349 351 353 357 359 361 358 358 357 353 352 352 353 355 354 352 350 350 350 349 348 348
354 354 354 354 355 352 354 353 353 354 351 345 347 347 349 349 342 341 348 348 351 348 351 353 355 359 360 362 357 351 347 347 349 350 351 352 351 349 349 349 349 349 349
351 350 352 353 354 359 357 356 354 354 352 350 348 345 345 346 350 345 340 339 345 344 345 347 350 356 355 357 353 345 343 343 343 343 344 345 345 345 346 347 347 346 347
346 351 351 349 351 355 356 355 355 353 350 350 347 344 346 343 342 346 344 343 342 339 340 343 346 350 349 350 347 344 342 340 339 340 340 342 343 343 344 346 346 347 347
342 348 351 350 348 353 355 355 354 353 353 352 350 349 347 351 353 352 349 342 333 339 338 339 340 342 341 344 344 342 340 337 336 336 336 338 339 341 342 343 344 345 346
343 346 349 348 349 351 352 351 348 348 351 354 349 353 353 352 355 354 348 344 335 333 336 331 333 335 336 340 339 338 338 334 333 332 332 333 334 335 337 338 338 339 339
344 346 345 344 346 347 348 349 345 344 346 346 349 350 353 356 357 357 351 345 342 332 331 331 329 331 333 334 335 336 336 331 330 329 328 329 329 330 331 332 333 333 334
346 346 343 343 344 345 347 348 345 345 346 345 345 346 348 351 356 358 354 346 345 341 335 333 326 327 329 330 332 331 330 329 327 326 325 324 324 325 326 327 328 329 330
345 345 343 343 343 343 343 343 344 342 340 340 342 342 342 346 345 348 352 352 350 344 331 324 326 325 325 324 325 327 328 328 325 323 322 320 320 320 320 321 322 323 325
344 344 343 343 342 342 342 341 340 340 338 336 337 340 341 342 344 344 345 342 347 347 335 321 321 320 320 322 323 322 322 322 322 321 319 318 316 316 315 316 316 316 316
342 342 341 340 339 340 339 339 339 339 339 336 336 337 336 339 336 336 338 337 337 339 336 325 319 321 320 320 318 318 317 317 318 320 319 317 316 315 314 314 314 313 311
342 341 341 339 338 338 337 336 336 337 337 337 338 337 336 336 336 338 337 339 339 333 329 324 320 319 320 320 320 317 315 316 314 315 316 318 318 316 315 314 314 314 312
342 341 340 340 337 335 334 335 331 334 334 334 335 334 333 328 324 326 336 338 339 334 327 323 320 319 317 318 318 317 316 315 315 318 319 322 324 324 320 315 314 313 313
342 340 339 338 336 331 322 323 329 330 329 329 329 330 332 332 325 322 324 323 327 335 334 329 325 323 323 321 321 322 318 319 318 325 322 323 326 323 322 319 311 312 312
340 338 338 339 336 333 319 320 325 329 328 328 328 327 326 326 329 331 324 324 322 322 326 332 328 328 327 328 329 325 324 323 322 323 324 321 326 323 324 317 310 310 310
338 335 336 338 336 329 316 317 322 332 330 330 329 328 326 322 321 326 326 322 318 320 324 322 325 325 327 329 329 327 328 328 325 324 327 317 322 321 321 320 311 309 309
338 335 336 336 334 330 313 314 322 330 329 329 328 328 328 322 311 313 323 321 318 314 310 313 313 312 311 312 315 320 324 318 320 321 325 321 319 318 319 318 317 311 309
336 334 332 333 322 331 308 310 319 327 324 323 327 326 312 318 310 310 325 322 320 320 320 320 320 316 318 316 316 320 315 312 313 317 326 319 321 318 313 319 318 316 314
Wind_Speed
4 4 2 2 4 4 5 5 4 5 6 7 7 7 9 8 8 5 5 13 11 12 15 15 16 16 15 15 14 14 14 14 13 12 12 13 12 12 12 12 12 12 12
4 5 5 7 7 7 6 7 5 6 6 6 8 8 8 8 8 9 7 8 14 11 13 14 16 17 17 15 15 14 15 15 14 13 13 12 12 12 13 13 15 14 14
8 7 8 7 6 6 5 6 6 7 7 7 8 6 7 9 9 8 9 8 10 16 13 13 15 16 17 17 16 15 15 15 14 15 14 13 11 12 13 14 15 14 12
12 7 7 7 6 6 5 5 6 5 6 8 6 7 8 8 9 10 10 9 7 7 15 14 15 16 17 17 15 15 14 12 12 13 14 15 14 14 14 15 15 15 14
10 7 7 8 8 7 5 6 6 6 7 7 7 7 8 8 8 9 12 11 10 8 7 13 13 14 17 18 17 17 17 16 16 14 15 17 17 16 16 16 16 17 16
6 7 6 3 6 5 5 6 7 9 7 7 8 8 7 9 8 8 9 11 11 11 10 9 8 11 17 17 16 14 15 16 18 17 17 17 17 18 19 18 18 18 18
3 5 5 6 6 6 7 5 7 7 6 6 5 9 10 10 11 9 9 9 10 10 11 10 4 7 5 12 13 13 13 15 18 19 18 20 20 20 16 16 16 16 17
3 3 3 4 5 5 6 7 7 6 7 5 6 6 8 8 10 10 8 7 8 7 9 9 9 8 4 2 10 11 12 13 14 15 17 19 20 20 16 18 14 13 12
2 2 4 4 5 5 7 5 8 8 8 4 8 5 4 5 4 3 8 5 2 3 6 7 7 7 6 7 4 4 7 5 2 6 16 19 19 17 17 21 17 19 18
3 3 4 5 5 6 4 6 5 6 6 6 4 7 8 6 3 4 6 6 3 4 4 6 5 5 4 3 5 10 7 8 8 8 10 8 3 4 6 10 15 16 19
4 4 4 5 6 4 4 5 5 5 5 5 5 2 6 6 6 3 4 7 7 5 4 4 7 5 5 3 8 8 11 10 11 10 8 7 5 4 6 8 10 8 8
3 5 5 5 5 5 3 3 4 4 2 4 4 5 5 4 7 6 4 5 5 5 5 5 5 5 7 8 10 12 12 12 11 11 10 8 7 7 6 7 8 9 11
4 5 5 5 3 5 4 5 4 4 4 2 4 4 5 6 5 4 4 3 3 2 3 6 5 5 6 5 7 11 13 12 12 11 11 11 10 9 9 9 9 10 10
5 4 5 5 5 4 4 5 4 5 6 4 3 2 4 5 4 2 2 5 5 2 2 5 4 4 5 5 9 10 10 13 13 13 13 13 13 13 13 14 14 14 15
5 5 5 5 5 5 6 5 6 5 5 5 6 5 2 2 1 0 3 4 4 4 2 4 3 5 4 4 7 9 9 13 13 13 13 13 13 13 14 14 15 14 14
6 7 6 5 6 6 6 5 4 6 6 6 6 7 6 6 4 3 2 4 3 3 4 3 3 3 4 5 7 7 9 12 14 14 14 14 13 13 14 14 15 16 16
6 7 6 6 6 7 6 5 6 7 8 8 7 8 8 8 6 5 4 3 3 4 5 3 3 3 4 6 7 8 7 7 9 14 14 14 14 14 15 14 14 14 15
6 7 8 7 8 8 7 7 7 8 9 9 9 9 9 7 8 8 6 7 5 3 6 7 3 2 4 5 6 7 6 7 7 12 13 13 14 15 15 15 14 14 14
6 7 7 8 7 8 8 8 8 9 10 10 10 10 10 10 9 8 8 7 6 5 6 7 4 2 2 3 5 6 5 5 4 7 11 13 14 14 14 13 13 13 13
6 7 7 7 7 8 8 7 8 9 9 9 10 11 12 11 8 7 8 8 7 8 8 7 6 4 2 3 2 3 3 3 3 3 7 8 8 12 12 12 13 12 11
6 7 7 6 6 6 7 7 7 7 9 9 10 11 12 13 16 17 8 6 6 8 7 6 5 3 2 2 2 1 1 2 0 2 2 3 4 4 6 9 12 11 10
6 6 6 7 6 7 6 9 6 8 8 9 9 9 9 10 14 14 14 18 15 7 9 7 6 6 5 4 4 3 3 3 2 4 3 3 2 3 2 7 7 9 9
6 5 6 6 8 9 5 5 5 7 8 8 8 7 8 8 8 10 8 12 15 14 11 8 7 7 7 5 3 3 4 1 0 1 2 2 0 1 2 7 7 7 8
8 6 6 7 8 7 4 4 1 7 7 7 8 8 9 9 9 8 10 11 12 12 11 9 9 9 8 5 3 4 1 1 3 4 2 2 2 2 4 8 7 6 6
7 7 7 7 7 7 3 3 6 6 7 7 7 7 7 8 7 11 8 8 9 9 9 11 11 9 9 8 7 6 1 4 5 3 4 4 2 3 3 4 9 9 7
6 6 6 5 3 7 2 3 7 5 5 5 5 6 10 8 6 9 4 4 5 5 5 6 7 6 4 5 6 7 6 6 6 3 4 5 2 5 4 3 5 9 7
Wind_Direction
269 258 243 248 261 235 237 231 262 223 198 216 226 222 235 232 254 252 256 166 207 223 227 229 223 218 222 219 219 221 223 226 229 233 233 234 233 228 229 226 227 230 231
246 235 227 225 247 200 216 226 210 226 217 210 222 228 243 245 227 240 237 190 195 221 232 237 227 222 221 225 222 223 229 232 231 229 236 244 241 236 235 236 233 237 233
246 234 250 266 238 233 225 229 224 234 226 236 246 240 237 235 254 243 251 254 190 201 222 232 222 227 223 228 224 226 232 235 231 231 228 237 239 240 237 243 243 241 243
244 247 248 251 246 241 230 254 240 256 261 238 221 238 237 244 240 246 238 246 244 252 193 208 219 228 232 232 231 231 237 252 265 249 239 238 237 236 235 233 240 245 245
243 230 231 248 226 241 230 233 239 225 238 244 260 239 241 248 240 241 235 235 242 260 261 185 204 223 233 239 236 227 218 215 233 253 270 274 253 243 235 234 234 237 238
223 229 227 240 244 255 245 251 243 232 253 238 234 239 243 238 230 235 237 236 233 239 237 251 229 214 217 230 239 235 226 210 217 224 236 251 265 259 243 242 238 238 238
237 228 224 219 235 241 254 243 246 251 269 264 252 244 239 221 235 232 221 235 232 222 239 237 217 255 231 217 233 236 228 221 217 222 219 230 240 253 270 264 254 243 243
191 214 268 246 241 252 239 258 259 261 252 201 257 284 251 217 210 219 229 223 238 250 223 215 227 219 217 197 243 230 236 233 241 233 231 226 232 239 250 270 267 266 252
49 330 284 281 273 269 262 261 243 236 260 235 249 252 276 261 169 198 226 230 275 249 292 268 259 239 214 228 218 137 95 105 74 273 239 230 239 246 229 242 255 254 249
14 346 307 293 279 286 303 258 249 259 243 245 239 233 244 308 242 194 163 129 69 29 333 290 259 243 244 265 80 75 83 68 60 47 50 69 50 334 287 269 277 267 257
13 351 326 302 281 274 250 276 269 255 251 248 237 264 245 237 267 274 181 146 107 68 47 19 21 60 55 72 88 77 74 68 59 50 40 36 17 343 312 299 281 288 268
57 13 17 16 330 302 290 320 331 282 251 255 214 230 242 234 227 229 218 151 121 74 48 22 48 49 41 66 81 75 67 63 62 60 55 47 35 16 353 332 315 293 281
71 31 23 35 360 339 354 354 352 354 343 252 224 232 241 248 253 230 222 155 116 153 107 49 37 59 64 60 71 77 67 65 60 56 52 46 42 37 32 25 15 12 7
61 39 33 37 31 22 29 36 21 5 349 332 351 219 238 230 234 223 196 172 149 106 77 111 26 45 50 72 79 76 70 65 65 60 57 54 54 50 47 45 46 47 47
95 73 56 49 42 42 45 65 56 30 14 14 1 0 34 75 31 172 120 155 197 162 116 158 113 32 60 59 76 75 70 62 63 63 61 59 59 56 53 46 45 44 44
61 63 60 60 52 50 39 20 76 47 47 34 29 37 15 12 350 79 138 160 168 170 134 63 72 102 82 77 78 82 84 74 60 62 62 58 57 56 56 54 51 47 46
73 80 76 71 69 61 49 55 62 56 51 49 38 36 36 31 28 38 40 33 144 119 113 94 85 87 80 92 84 74 67 70 69 61 64 63 59 56 54 51 49 49 49
88 90 88 79 76 71 57 59 56 56 60 50 44 47 38 41 30 26 57 38 47 66 115 117 101 86 68 68 81 80 70 64 69 66 67 66 65 58 55 53 50 48 47
104 91 87 85 82 77 73 61 56 59 59 58 50 52 32 40 51 47 49 55 57 45 114 126 116 92 95 93 82 72 73 72 57 64 79 72 70 70 66 61 57 51 45
116 102 88 86 84 83 75 69 65 65 64 62 62 52 50 44 46 59 59 67 75 78 70 94 94 95 87 103 105 114 98 74 85 75 62 70 94 90 80 77 69 64 57
121 116 113 102 101 82 53 67 70 71 74 71 63 71 59 55 45 35 49 58 85 94 99 99 94 99 109 159 121 112 104 107 342 306 120 178 179 140 120 95 95 71 66
142 139 131 121 110 87 43 21 42 76 70 71 69 69 72 94 74 57 56 56 43 52 71 95 108 109 108 120 154 164 152 211 168 182 233 104 352 86 83 85 78 89 86
139 141 137 129 113 111 100 74 345 92 91 83 74 67 67 61 53 81 105 88 59 48 50 84 82 59 76 74 111 174 170 99 110 177 219 192 248 138 146 126 115 104 96
162 162 155 145 129 107 115 115 290 101 95 86 82 80 73 67 34 43 74 76 68 54 39 64 63 51 50 46 15 73 60 120 163 193 210 298 157 199 198 114 138 144 134
168 163 157 152 141 128 142 195 262 128 102 89 78 49 80 76 17 353 82 86 90 98 83 79 85 82 67 40 2 297 241 241 193 149 201 265 166 202 225 176 144 175 172
177 153 139 146 84 136 120 310 311 113 118 115 108 100 56 55 19 7 71 100 98 75 71 116 127 134 132 95 45 27 347 330 329 165 87 281 129 292 175 187 170 163 186